Hourly Data Report for October 27, 2016

All times are specified in Local Standard Time (LST). Add 1 hour to adjust for Daylight Saving Time where and when it is observed.

HALL BEACH A
NUNAVUT

68°46'33.000" N
81°14'33.000" W
9.10 m
2402354
71293
YUX

Download Data

Hourly Data (October 2016)
Hourly Data Report for October 27, 2016
Temp Definition
°C
Dew Point Temp Definition
°C
Rel Hum Definition
%
Wind Dir Definition
10's deg

Wind Spd Definition
km/h
Visibility Definition
km
Stn Press Definition
kPa
Hmdx Definition


Wind Chill Definition


Weather Definition


TIME
00:00 Legend Double Dagger -9.6 -10.9 90 28 21 9.7 100.36   -18 Snow
01:00 Legend Double Dagger -12.1 -13.3 91 27 22 14.5 100.34   -21 Snow
02:00 Legend Double Dagger -12.5 -13.7 91 30 28 8.1 100.37   -22 Snow
03:00 Legend Double Dagger -12.9 -14.5 88 31 45 2.8 100.43   -25 Snow,Blowing Snow
04:00 Legend Double Dagger -14.2 -15.9 87 32 43 2.4 100.49   -27 Snow,Blowing Snow
05:00 Legend Double Dagger -15.3 -17.3 85 31 43 2.8 100.52   -28 Snow,Blowing Snow
06:00 Legend Double Dagger -16.2 -18.3 84 32 45 3.2 100.54   -30 Snow,Blowing Snow
07:00 Legend Double Dagger -17.3 -19.5 83 31 48 2.4 100.54   -31 Snow,Blowing Snow
08:00 Legend Double Dagger -17.2 -19.4 83 30 39 4.0 100.58   -30 Snow
09:00 Legend Double Dagger -16.8 -19.0 83 31 48 2.0 100.52   -31 Snow,Blowing Snow
10:00 Legend Double Dagger -16.6 -19.0 82 30 45 4.8 100.53   -30 Snow
11:00 Legend Double Dagger -16.5 -19.0 81 29 41 6.4 100.53   -30 Haze
12:00 Legend Double Dagger -16.1 -18.7 81 30 45 3.2 100.44   -30 Blowing Snow
13:00 Legend Double Dagger -15.9 -18.3 82 29 45 4.0 100.38   -29 Blowing Snow
14:00 Legend Double Dagger -15.0 -17.4 82 29 46 2.0 100.35   -28 Snow,Blowing Snow
15:00 Legend Double Dagger -14.3 -16.4 84 29 46 1.6 100.29   -27 Snow,Blowing Snow
16:00 Legend Double Dagger -13.7 -15.4 87 29 54 0.6 100.23   -27 Moderate Snow,Blowing Snow
17:00 Legend Double Dagger -13.0 -14.6 88 29 48 1.0 100.20   -26 Snow,Blowing Snow
18:00 Legend Double Dagger -12.6 -14.2 88 30 48 1.2 100.14   -25 Snow,Blowing Snow
19:00 Legend Double Dagger -12.3 -13.8 89 30 48 0.6 100.07   -25 Moderate Snow,Blowing Snow
20:00 Legend Double Dagger -11.2 -12.5 90 30 43 0.8 100.03   -23 Moderate Snow,Blowing Snow
21:00 Legend Double Dagger -10.8 -12.0 91 31 34 6.4 100.02   -21 Snow
22:00 Legend Double Dagger -9.6 -11.4 87 32 34 9.7 100.04   -20 Snow
23:00 Legend Double Dagger -9.7 -12.5 80 36 39 2.0 100.07   -20 Snow

Notes on Data Quality.

Legend

  • E = Estimated
  • M = Missing
  • NA = Not Available
  • ‡ = Partner data that is not subject to review by the National Climate Archives
Date modified: